Find Resurs-P No. 4

NORAD ID: 59371 Int'l Des: 2024-061 Owner: TSSKBP Country: RU operational
LEOCIRCULARRETROGRADESSO

Live Position

Loading 3D Globe...

About Resurs-P No. 4

Description loading...

Upcoming Passes

Passes for default location (London). Set your location on the main map for personalized predictions.

Altitude History

Loading altitude history...

Two-Line Element Set

1 59371U 24061A 26104.97067309 .00002337 00000-0 75163-4 0 9993
2 59371 97.2705 54.0056 0001141 121.5584 238.5770 15.33235003114081
Epoch: Apr 14, 2026 • Age: 8 hours

Current Status

Altitude 474.2 km
Velocity 7.63 km/s
Sub-Earth Point -19.01°S, 107.7°E
Launch Date Mar 31, 2024
Age 2 years
Type other

Technical Details

Classification Payload
Mass 6000.00 kg
Dry Mass 5800.00 kg
Total Mass 6000.00 kg
Length 7.90 m
Diameter 2.70 m
Span 13.00 m
Shape Cy+2 pan
Manufacturer TSSKBP
Bus Type Resurs P
Phase Status In Orbit
Owner/State TSSKBP/RU

Most Searched